Retour au catalogue

YAOGAN-46

ActifMilitaireMEO
NORAD 66313·PAYLOAD·🇨🇳 China

Lancé Nov 3, 2025 depuis Wenchang Space Launch Site

Loading…

Prochains Passages (prochaines 24 heures)

TLE

FraisSource: Space-Track

Époque: Sep 14, 2026, 12:36 UTC

1 66313U 25250A   26257.52527804 -.00000026  00000-0  00000-0 0  9997
2 66313  20.0590 282.6316 0005207 255.6170 104.3409  5.31209588 16846

Suivez YAOGAN-46 en temps réel avec AllMySat

Download on the App Store